Vertical_Velocity
-4 -1 -2 0 -0 -2 -1 2 -4 -1 -0 -2 0 -1 -2 0 -0 0 -1 1 1 -0 -0 -0 0 -3 -2 1 -4 -1 -2 -3 -1 -2 -1 1 -1 -1 -3 -4 -4 -1 -3 -14
-1 -3 -4 1 -1 -1 -1 1 -1 2 -5 -4 -2 -3 -1 1 -1 -0 -1 -0 0 -0 -0 -4 -1 -0 1 1 -1 -4 -4 -2 -0 3 -2 -0 1 0 -0 -1 -2 -3 -4 -12
-1 -3 -1 0 -4 -2 1 0 -5 -0 -0 0 -0 -0 -1 -1 1 -1 0 0 0 -1 -0 -0 -1 0 -0 1 -0 0 -3 -0 -6 -10 -9 -5 2 1 0 -2 1 -4 -6 -3
-1 -5 1 -3 -1 -1 1 -1 -1 -2 -4 0 -0 1 0 0 -0 -0 0 -2 -0 1 -1 -0 0 0 1 -0 2 -1 -4 -2 -1 -1 -0 -0 -2 -1 -0 1 -8 -1 -9 -1
-3 -2 -4 -4 -5 -3 -1 -0 -1 0 -1 -0 1 -1 0 0 -3 0 -0 -1 -0 0 -1 -4 -2 -3 -1 -4 1 -0 -0 -2 -0 -1 -0 0 -0 -0 0 -0 -1 1 1 -7
-4 -1 -4 -5 -4 -6 -2 -2 2 6 1 -1 -1 1 -0 2 1 2 -1 1 0 -1 1 1 1 -0 0 -3 -6 -0 -2 -2 -2 -3 0 -1 -3 -6 -2 -1 0 -5 -3 -21
-2 -1 -4 -4 -7 -9 -3 -2 -2 -1 -2 -0 1 -0 1 0 0 1 -0 -0 0 1 -0 3 3 -1 -0 0 1 -2 -1 -1 -1 -2 -3 -7 -20 -0 -2 -2 -3 0 1 -1
-2 0 -5 -5 -6 -5 -4 -1 -0 0 -1 1 -2 -2 1 -2 -1 0 0 3 -0 2 1 -3 -3 -5 -3 -1 -0 1 -2 -2 -1 -3 -1 -11 -3 -0 -2 -4 -8 -2 -2 -1
-2 0 -5 -6 -5 -1 -3 -4 -1 -1 -3 -2 2 0 1 1 -0 -4 1 1 0 1 -1 -2 -1 -2 -2 -2 0 -0 0 -2 -5 1 -1 -1 -6 -0 0 -1 -7 -0 1 -2
0 -4 -3 -2 -5 -4 -3 -4 -2 -2 -2 2 -4 -0 1 1 -0 0 -1 -4 -4 1 0 -0 -1 -2 -3 -2 -1 -0 1 0 -3 -0 -1 -8 -4 -1 2 -6 -15 -1 1 -0
-2 -5 -7 -2 -1 -4 -0 -1 -5 -2 -3 -3 3 2 1 -1 0 1 1 -3 4 -1 0 -1 -1 -0 -3 -1 -3 -3 -5 -3 -1 2 2 -10 -0 -1 -4 -10 -1 0 -1 -1
-3 -4 -5 -1 0 -1 -1 -3 -4 1 -1 -3 -2 1 6 1 -2 4 -2 1 0 3 1 -1 -0 0 -0 -2 -2 -0 -4 -10 -9 -10 -12 -3 -1 -2 1 1 1 -1 1 0
0 -5 -1 -1 2 -2 -2 -4 -2 0 -5 -9 0 3 4 2 5 1 -5 3 -2 -1 4 2 0 1 -2 -1 -4 1 -1 0 -1 -2 -5 -3 -1 -0 -2 -0 1 2 0 0
-2 -4 -0 -1 2 -1 -0 -2 -2 -3 -3 -0 -4 2 -0 2 5 2 4 3 1 -3 -1 -2 1 1 1 -1 -1 0 -4 -1 -2 -3 -3 -1 -5 -4 0 1 -1 -0 -0 -0
-5 -3 -0 -1 -0 -2 1 -2 -2 0 -8 -1 -4 1 2 -0 -4 2 4 0 2 -1 -1 1 -1 0 1 -1 1 0 -2 -4 -3 -6 -2 1 -7 1 -2 -2 -0 1 1 0
-4 0 -3 -1 1 -0 -0 -3 -0 0 -2 -3 -2 -2 1 -0 1 -6 -4 0 1 -0 -1 -2 -1 -1 2 1 0 -5 -1 -1 1 -6 3 -0 1 -0 1 -1 0 3 -0 -1
-3 1 -1 -2 0 -1 0 -3 -0 -4 1 -3 -6 -5 1 -3 -1 -4 3 -0 -2 1 -0 -0 0 -2 3 1 0 -9 -5 10 0 0 -2 -0 1 -1 1 0 -0 -1 3 3
-2 1 -1 -2 -2 2 -0 -2 -3 -1 -2 -5 -1 -6 -3 -2 -1 -1 -0 -1 0 0 -1 1 -0 0 1 -0 -8 -4 -2 -1 -3 0 0 2 4 0 -1 2 2 1 -1 0
-2 1 -2 -4 -1 -0 -2 -1 0 -3 -5 -2 -1 1 -4 -1 0 -0 -0 3 1 3 -0 -1 1 -1 -2 -8 -1 0 3 6 2 1 3 1 -2 -1 3 2 1 1 0 -0
2 1 -1 -2 -1 -2 -1 -2 1 -1 -2 -5 -1 3 -3 0 1 1 2 0 -1 1 -6 1 2 -3 -6 -2 2 1 -3 -1 2 -1 -3 -1 -1 1 1 1 1 -0 1 1
1 -0 -2 0 -0 1 0 -0 -1 0 -0 -1 -2 -1 -0 -0 2 0 -1 -1 -0 2 -0 2 -0 -1 -2 1 -0 0 3 1 -0 2 3 -1 -1 2 2 1 0 1 -0 -1
-0 0 0 -0 -1 0 -3 -1 1 0 -3 1 0 2 0 -3 1 3 -0 0 2 -1 -1 4 -0 -1 -0 -1 -1 -1 1 1 1 1 1 2 4 -7 0 -0 0 -0 0 -0
-2 -1 -1 3 -1 -3 -5 -1 -4 1 1 1 -2 -2 -2 -0 3 0 2 3 -2 1 2 -2 -2 0 0 -1 0 0 -0 -1 -1 -0 -1 0 -0 2 4 2 1 1 -1 0
-2 -1 -4 -6 -2 -2 -3 -3 -2 -1 -2 -1 -0 -1 2 1 2 -0 3 -4 3 1 1 -4 -0 1 -1 -1 -1 0 -1 -0 -0 -0 -1 0 2 -2 -1 0 0 -1 -1 -1
-1 -1 -4 -1 -1 0 1 2 -1 -1 -2 -1 1 -1 3 -1 2 1 0 2 -0 -2 -3 0 1 1 1 -1 0 -0 -2 -1 0 0 0 2 -0 -2 -2 -0 -1 -1 -0 0
-1 0 -2 1 -1 -1 -0 -0 -1 1 -1 0 -2 -0 1 -1 1 3 -2 2 -2 -2 0 1 1 -1 -0 -0 1 1 -0 -0 -0 1 2 2 -3 -1 0 0 -0 -0 -1 -1
-1 -2 -0 1 -1 -1 -0 1 0 -0 -2 -1 -1 2 -7 -1 1 0 -1 -1 -1 -1 -1 -3 -5 -3 0 -1 -1 -1 -1 -1 -1 -2 2 3 4 -3 -2 -2 0 0 1 1
Height
1497 1494 1490 1485 1479 1475 1472 1471 1474 1472 1471 1473 1473 1476 1470 1466 1465 1465 1466 1466 1461 1461 1464 1467 1470 1473 1471 1472 1474 1480 1484 1495 1502 1500 1502 1501 1501 1500 1505 1516 1518 1528 1528 1503
1495 1492 1488 1484 1479 1474 1472 1471 1472 1471 1470 1479 1477 1469 1467 1464 1465 1465 1466 1465 1465 1462 1463 1468 1469 1470 1470 1471 1473 1478 1483 1502 1501 1501 1503 1500 1497 1497 1497 1502 1510 1524 1519 1496
1492 1490 1487 1483 1478 1474 1472 1473 1475 1471 1470 1470 1471 1473 1468 1466 1464 1464 1467 1467 1465 1465 1465 1466 1471 1473 1472 1472 1472 1475 1477 1489 1495 1500 1490 1490 1493 1489 1494 1498 1507 1491 1498 1485
1491 1489 1486 1482 1478 1474 1473 1473 1475 1474 1477 1471 1472 1472 1470 1465 1465 1465 1464 1468 1469 1469 1468 1467 1471 1473 1474 1475 1476 1478 1481 1492 1501 1490 1484 1487 1488 1487 1488 1494 1482 1487 1474 1479
1490 1488 1485 1483 1478 1474 1473 1473 1473 1472 1470 1470 1471 1469 1470 1467 1468 1466 1466 1466 1469 1469 1468 1469 1471 1471 1473 1472 1477 1479 1483 1495 1495 1483 1483 1484 1490 1483 1483 1480 1480 1479 1479 1475
1490 1488 1485 1483 1480 1476 1476 1476 1475 1473 1474 1472 1472 1475 1473 1472 1473 1466 1468 1469 1468 1467 1469 1467 1467 1467 1467 1468 1473 1479 1482 1492 1500 1503 1493 1488 1488 1475 1475 1473 1471 1470 1481 1457
1490 1488 1485 1484 1482 1480 1480 1478 1478 1477 1478 1477 1476 1476 1477 1472 1472 1475 1467 1468 1468 1468 1467 1468 1467 1467 1467 1469 1471 1472 1482 1488 1497 1509 1497 1506 1468 1462 1464 1466 1462 1465 1461 1458
1490 1488 1486 1485 1484 1483 1481 1480 1479 1477 1480 1482 1481 1479 1479 1475 1471 1470 1472 1468 1470 1469 1466 1470 1473 1477 1471 1469 1470 1472 1473 1484 1494 1500 1508 1483 1459 1462 1463 1464 1460 1455 1454 1453
1489 1488 1487 1487 1485 1483 1483 1482 1481 1481 1483 1485 1485 1483 1480 1476 1475 1471 1469 1469 1467 1468 1468 1471 1476 1479 1476 1476 1472 1472 1473 1474 1483 1499 1494 1491 1467 1459 1458 1460 1466 1452 1451 1449
1488 1488 1488 1487 1486 1485 1484 1483 1482 1482 1482 1483 1484 1482 1483 1480 1480 1478 1473 1471 1470 1468 1471 1470 1475 1479 1475 1477 1476 1476 1476 1477 1485 1483 1490 1477 1462 1458 1458 1466 1463 1450 1448 1446
1486 1487 1488 1487 1486 1485 1484 1485 1484 1484 1482 1482 1481 1481 1480 1483 1483 1483 1479 1474 1470 1471 1471 1469 1473 1478 1474 1474 1471 1473 1475 1476 1478 1478 1479 1487 1458 1459 1462 1457 1452 1450 1448 1446
1485 1486 1487 1486 1486 1485 1483 1484 1484 1483 1482 1483 1481 1479 1479 1478 1480 1479 1479 1480 1480 1476 1475 1475 1474 1472 1474 1473 1473 1468 1472 1468 1473 1473 1469 1456 1455 1455 1454 1453 1451 1450 1449 1448
1483 1484 1486 1486 1485 1484 1483 1482 1481 1481 1481 1482 1479 1479 1479 1476 1475 1475 1479 1478 1478 1480 1480 1479 1472 1470 1472 1472 1473 1465 1461 1460 1463 1463 1454 1453 1452 1452 1451 1451 1451 1450 1449 1449
1482 1483 1485 1485 1484 1483 1482 1480 1481 1482 1482 1485 1481 1480 1477 1476 1474 1475 1476 1479 1478 1480 1481 1481 1478 1472 1469 1467 1467 1466 1460 1459 1458 1459 1453 1451 1449 1448 1448 1448 1448 1449 1449 1450
1481 1483 1483 1484 1483 1483 1481 1481 1482 1483 1485 1485 1481 1480 1477 1476 1475 1476 1477 1479 1480 1481 1482 1480 1478 1474 1472 1466 1465 1463 1456 1455 1457 1455 1448 1448 1446 1445 1445 1446 1446 1447 1448 1449
1480 1481 1482 1483 1482 1481 1480 1482 1484 1484 1483 1484 1485 1479 1477 1477 1477 1475 1477 1481 1480 1481 1482 1479 1476 1474 1474 1471 1463 1450 1450 1449 1449 1447 1445 1445 1445 1444 1443 1443 1444 1445 1446 1448
1479 1480 1482 1482 1481 1481 1481 1484 1485 1483 1482 1484 1484 1479 1478 1479 1479 1479 1478 1477 1480 1480 1479 1478 1476 1473 1473 1470 1464 1449 1448 1445 1445 1443 1441 1441 1440 1441 1440 1440 1441 1443 1445 1446
1478 1479 1479 1480 1481 1481 1481 1482 1482 1482 1483 1485 1488 1485 1480 1481 1480 1477 1477 1477 1478 1477 1477 1475 1474 1472 1470 1468 1448 1445 1444 1441 1442 1443 1442 1441 1440 1440 1440 1440 1440 1442 1443 1444
1476 1478 1478 1480 1482 1481 1483 1482 1483 1481 1485 1485 1487 1488 1490 1480 1477 1477 1477 1476 1476 1475 1474 1472 1471 1466 1463 1450 1447 1445 1441 1439 1438 1438 1438 1438 1439 1439 1439 1439 1440 1441 1441 1441
1474 1475 1477 1480 1481 1481 1482 1484 1484 1483 1484 1485 1487 1486 1485 1482 1477 1473 1477 1474 1471 1470 1465 1466 1466 1457 1447 1446 1444 1441 1439 1437 1435 1435 1435 1436 1436 1436 1437 1437 1438 1438 1439 1439
1473 1474 1476 1479 1479 1481 1482 1483 1483 1484 1485 1485 1484 1483 1482 1480 1478 1473 1473 1469 1469 1460 1460 1460 1454 1448 1444 1443 1442 1441 1438 1436 1435 1434 1434 1433 1434 1435 1436 1436 1436 1436 1436 1435
1472 1473 1475 1478 1480 1481 1482 1486 1484 1483 1485 1483 1482 1482 1481 1478 1476 1474 1469 1466 1464 1458 1458 1456 1448 1444 1444 1442 1441 1439 1437 1436 1434 1433 1432 1432 1432 1431 1433 1434 1434 1434 1433 1433
1470 1473 1475 1476 1480 1482 1489 1492 1490 1483 1480 1482 1482 1481 1479 1476 1474 1471 1466 1461 1457 1457 1454 1450 1445 1444 1443 1442 1440 1439 1437 1435 1434 1432 1431 1432 1432 1432 1432 1432 1431 1431 1431 1431
1469 1471 1476 1478 1483 1479 1476 1478 1476 1478 1478 1480 1480 1480 1478 1473 1472 1467 1461 1460 1456 1454 1455 1451 1446 1444 1442 1440 1440 1439 1438 1436 1435 1434 1434 1434 1432 1432 1432 1432 1431 1431 1430 1430
1469 1470 1473 1475 1468 1469 1471 1473 1474 1475 1476 1478 1478 1479 1478 1473 1470 1466 1461 1455 1456 1450 1447 1446 1445 1443 1441 1440 1439 1438 1437 1437 1436 1436 1435 1434 1433 1434 1433 1432 1431 1430 1429 1428
1468 1467 1468 1468 1469 1468 1470 1470 1469 1472 1474 1476 1477 1477 1476 1470 1467 1462 1456 1453 1455 1448 1447 1446 1444 1442 1441 1440 1439 1438 1437 1436 1436 1436 1436 1434 1434 1434 1433 1432 1431 1429 1429 1428
1464 1463 1463 1464 1464 1464 1464 1464 1466 1469 1473 1474 1474 1476 1472 1470 1468 1463 1455 1451 1448 1447 1446 1445 1443 1442 1440 1439 1438 1436 1436 1436 1436 1436 1435 1434 1434 1433 1433 1432 1430 1429 1428 1426